This demonstration page uses our WeatherBlox Daily Observations layout. Learn more.

Left ArrowRight Arrow

Hourly Observations for October 23, 2021

Temp ( °F °C ) Dew Point ( °F °C ) Humidity (%) Winds ( mph kmh ) Pressure ( in mb ) Visibility ( mi km ) Precip ( " mm )
12:53 am 00:53 Cloudy 54 12.2 51 10.6 90 90 N 3 6 29.90 1013 10 16 N/A
1:53 am 01:53 Cloudy 54 12.2 51 10.6 90 90 N N/A 29.89 1012 10 16 N/A
2:53 am 02:53 Mostly Cloudy 53 11.7 51 10.6 93 93 N N/A 29.89 1012 10 16 N/A
3:53 am 03:53 Cloudy 53 11.7 50 10 89 89 N N/A 29.90 1013 10 16 N/A
4:53 am 04:53 Cloudy 53 11.7 51 10.6 93 93 N N/A 29.89 1012 10 16 N/A
5:53 am 05:53 Cloudy 54 12.2 51 10.6 90 90 N N/A 29.89 1012 10 16 N/A
6:53 am 06:53 Cloudy 56 13.3 51 10.6 84 84 SSW 6 9 29.88 1012 10 16 N/A
7:53 am 07:53 Cloudy with Light Rain 54 12.2 52 11.1 93 93 W 3 6 29.88 1012 10 16 0.00 0.00
8:05 am 08:05 Cloudy 54 12.2 52 11.1 93 93 W 3 6 29.89 1012 10 16 0.00 0.00
8:21 am 08:21 Cloudy with Light Rain 54 12.2 52 11.1 93 93 N N/A 29.89 1012 10 16 0.00 0.00
8:53 am 08:53 Cloudy with Light Rain 56 13.3 51 10.6 84 84 SW 3 6 29.90 1012 10 16 0.01 0.25
9:53 am 09:53 Cloudy with Rain 55 12.8 52 11.1 90 90 SW 6 9 29.92 1013 5 8 0.03 0.76
10:53 am 10:53 Cloudy with Light Rain 54 12.2 52 11.1 93 93 S 6 9 29.92 1013 7 11 0.18 4.57
11:26 am 11:26 Cloudy 55 12.8 51 10.6 87 87 SW 5 7 29.93 1014 10 16 0.01 0.25
11:53 am 11:53 Cloudy 55 12.8 51 10.6 87 87 S 6 9 29.93 1014 9 14 0.01 0.25
12:13 pm 12:13 Cloudy with Light Rain 56 13.3 52 11.1 87 87 S 9 15 29.93 1014 8 13 0.00 0.00
12:53 pm 12:53 Cloudy 56 13.3 52 11.1 87 87 S 10 17 29.91 1013 10 16 0.00 0.00
1:53 pm 13:53 Cloudy 56 13.3 51 10.6 84 84 S 9 15 29.88 1012 10 16 N/A
2:26 pm 14:26 Cloudy with Light Rain 56 13.3 51 10.6 84 84 SSW 10 17 29.88 1012 6 10 0.02 0.51
2:53 pm 14:53 Cloudy 56 13.3 51 10.6 84 84 S 8 13 29.87 1012 10 16 0.02 0.51
3:04 pm 15:04 Cloudy 56 13.3 51 10.6 84 84 S 8 13 29.87 1012 10 16 N/A
3:51 pm 15:51 Cloudy with Light Rain 55 13 50 10 82 82 S 13 20 29.87 1012 7 11 0.00 0.00
3:53 pm 15:53 Cloudy with Light Rain 55 12.8 50 10 83 83 S 13 20 29.87 1011 7 11 0.00 0.00
4:32 pm 16:32 Cloudy with Light Rain 54 12.2 50 10 87 87 SSW 5 7 29.87 1012 4 6 0.02 0.51
4:53 pm 16:53 Cloudy with Light Rain 54 12.2 51 10.6 90 90 SSW 5 7 29.86 1011 6 10 0.05 1.27
5:08 pm 17:08 Cloudy with Light Rain 54 12.2 50 10 87 87 VRB 3 6 29.86 1011 8 13 0.01 0.25
5:38 pm 17:38 Cloudy with Light Rain 53 11.7 51 10.6 93 93 S 3 6 29.85 1011 2 3 0.03 0.76
5:53 pm 17:53 Cloudy with Light Rain 53 11.7 51 10.6 93 93 N N/A 29.84 1011 3 5 0.06 1.52
6:00 pm 18:00 Cloudy with Light Rain 53 11.7 51 10.6 93 93 VRB 3 6 29.85 1011 3 5 0.01 0.25
6:09 pm 18:09 Cloudy with Light Rain 53 11.7 51 10.6 93 93 SSE 3 6 29.85 1011 3 4 0.02 0.51
6:14 pm 18:14 Cloudy with Light Rain 53 11.7 51 10.6 93 93 S 8 13 29.85 1011 3 5 0.03 0.76
6:22 pm 18:22 Cloudy with Light Rain 54 12.2 51 10.6 90 90 S 6 9 29.84 1011 4 6 0.03 0.76
6:53 pm 18:53 Cloudy with Light Rain 53 11.7 51 10.6 93 93 S 9 15 29.83 1010 4 6 0.04 1.02
7:53 pm 19:53 Cloudy 53 11.7 51 10.6 93 93 S 10 17 29.82 1010 6 10 0.03 0.76
8:37 pm 20:37 Cloudy 53 11.7 50 10 89 89 S 10 17 29.82 1010 10 16 N/A
8:44 pm 20:44 Cloudy 53 11.7 50 10 89 89 S 12 19 29.81 1010 10 16 N/A
8:53 pm 20:53 Cloudy 53 11.7 50 10 89 89 S 13 20 29.80 1009 10 16 N/A
9:53 pm 21:53 Cloudy 53 11.7 50 10 89 89 WSW 9 15 29.78 1009 10 16 N/A
10:53 pm 22:53 Cloudy with Light Rain 54 12.2 51 10.6 90 90 S 14 22 29.75 1008 9 14 0.00 0.00
11:53 pm 23:53 Cloudy 55 12.8 51 10.6 87 87 S 17 28 29.72 1007 10 16 0.01 0.25

Powered by AerisWeather